Time,TemperatureF,DewpointF,PressureIn,WindDirection,WindDirectionDegrees,WindSpeedMPH,WindSpeedGustMPH,Humidity,HourlyPrecipIn,Conditions,Clouds,dailyrainin,SoftwareType,DateUTC
2013-07-05 00:01:00,75.0,72.0,30.19,North,0,0.0,1.0,91,0.00,,,0.00,,2013-07-05 04:01:00,
2013-07-05 00:12:00,75.0,72.0,30.19,North,0,0.0,1.0,91,0.00,,,0.00,,2013-07-05 04:12:00,
2013-07-05 00:22:00,75.0,72.0,30.19,North,0,0.0,1.0,91,0.00,,,0.00,,2013-07-05 04:22:00,
2013-07-05 00:33:00,75.0,72.0,30.19,North,0,0.0,0.0,91,0.00,,,0.00,,2013-07-05 04:33:00,
2013-07-05 00:43:00,75.0,73.0,30.19,North,0,0.0,5.0,93,0.00,,,0.00,,2013-07-05 04:43:00,
2013-07-05 00:53:00,75.0,73.0,30.19,North,0,0.0,4.0,93,0.00,,,0.00,,2013-07-05 04:53:00,
2013-07-05 01:01:00,75.0,73.0,30.19,North,0,0.0,4.0,93,0.00,,,0.00,,2013-07-05 05:01:00,
2013-07-05 01:12:00,75.0,73.0,30.19,North,0,0.0,1.0,93,0.00,,,0.00,,2013-07-05 05:12:00,
2013-07-05 01:33:00,75.0,73.0,30.19,North,0,0.0,2.0,94,0.00,,,0.00,,2013-07-05 05:33:00,
2013-07-05 01:43:00,75.0,73.0,30.19,North,0,0.0,1.0,94,0.00,,,0.00,,2013-07-05 05:43:00,
2013-07-05 01:52:00,75.0,73.0,30.19,North,0,0.0,1.0,94,0.00,,,0.00,,2013-07-05 05:52:00,
2013-07-05 02:02:00,74.0,72.0,30.19,North,0,0.0,0.0,94,0.00,,,0.00,,2013-07-05 06:02:00,
2013-07-05 02:13:00,74.0,72.0,30.19,North,0,0.0,1.0,94,0.00,,,0.00,,2013-07-05 06:13:00,
2013-07-05 02:23:00,74.0,72.0,30.19,North,0,0.0,2.0,95,0.00,,,0.00,,2013-07-05 06:23:00,
2013-07-05 02:34:00,74.0,72.0,30.19,North,0,0.0,3.0,95,0.00,,,0.00,,2013-07-05 06:34:00,
2013-07-05 02:44:00,74.0,72.0,30.19,North,0,0.0,1.0,95,0.00,,,0.00,,2013-07-05 06:44:00,
2013-07-05 02:53:00,74.0,72.0,30.19,North,0,0.0,5.0,95,0.00,,,0.00,,2013-07-05 06:53:00,
2013-07-05 03:02:00,74.0,72.0,30.19,North,0,0.0,2.0,95,0.00,,,0.00,,2013-07-05 07:02:00,
2013-07-05 03:12:00,74.0,73.0,30.19,North,0,0.0,3.0,96,0.00,,,0.00,,2013-07-05 07:12:00,
2013-07-05 03:23:00,74.0,73.0,30.19,North,0,0.0,2.0,96,0.00,,,0.00,,2013-07-05 07:23:00,
2013-07-05 03:34:00,74.0,73.0,30.19,North,0,0.0,5.0,96,0.00,,,0.00,,2013-07-05 07:34:00,
2013-07-05 03:43:00,74.0,73.0,30.19,North,0,0.0,3.0,96,0.00,,,0.00,,2013-07-05 07:43:00,
2013-07-05 03:53:00,74.0,73.0,30.18,North,0,0.0,4.0,97,0.00,,,0.00,,2013-07-05 07:53:00,
2013-07-05 04:03:00,75.0,74.0,30.18,North,0,0.0,6.0,97,0.00,,,0.00,,2013-07-05 08:03:00,
2013-07-05 04:23:00,75.0,74.0,30.18,North,0,0.0,6.0,97,0.00,,,0.00,,2013-07-05 08:23:00,
2013-07-05 04:33:00,75.0,74.0,30.18,North,0,0.0,2.0,97,0.00,,,0.00,,2013-07-05 08:33:00,
2013-07-05 04:44:00,74.0,73.0,30.18,North,0,0.0,5.0,97,0.00,,,0.00,,2013-07-05 08:44:00,
2013-07-05 04:55:00,74.0,73.0,30.18,North,0,0.0,4.0,97,0.00,,,0.00,,2013-07-05 08:55:00,
2013-07-05 05:08:00,74.0,73.0,30.18,North,0,0.0,4.0,97,0.00,,,0.00,,2013-07-05 09:08:00,
2013-07-05 05:27:00,74.0,73.0,30.19,North,0,0.0,4.0,97,0.00,,,0.00,,2013-07-05 09:27:00,
2013-07-05 05:37:00,74.0,73.0,30.18,North,0,0.0,2.0,97,0.00,,,0.00,,2013-07-05 09:37:00,
2013-07-05 05:48:00,74.0,73.0,30.18,North,0,0.0,1.0,97,0.00,,,0.00,,2013-07-05 09:48:00,
2013-07-05 05:55:00,74.0,73.0,30.18,North,0,0.0,2.0,97,0.00,,,0.00,,2013-07-05 09:55:00,
2013-07-05 06:08:00,74.0,73.0,30.19,North,0,0.0,4.0,98,0.00,,,0.00,,2013-07-05 10:08:00,
2013-07-05 06:27:00,74.0,73.0,30.19,North,0,0.0,3.0,97,0.00,,,0.00,,2013-07-05 10:27:00,
2013-07-05 06:37:00,74.0,73.0,30.18,North,0,0.0,4.0,98,0.00,,,0.00,,2013-07-05 10:37:00,
2013-07-05 06:47:00,74.0,73.0,30.19,North,0,0.0,2.0,98,0.00,,,0.00,,2013-07-05 10:47:00,
2013-07-05 07:10:00,74.0,73.0,30.19,North,0,0.0,3.0,98,0.00,,,0.00,,2013-07-05 11:10:00,
2013-07-05 07:18:00,74.0,73.0,30.19,North,0,0.0,2.0,98,0.00,,,0.00,,2013-07-05 11:18:00,
2013-07-05 07:25:00,74.0,73.0,30.19,North,0,0.0,6.0,98,0.00,,,0.00,,2013-07-05 11:25:00,
2013-07-05 07:37:00,74.0,73.0,30.19,North,0,0.0,3.0,98,0.00,,,0.00,,2013-07-05 11:37:00,
2013-07-05 07:48:00,75.0,74.0,30.19,North,0,0.0,5.0,98,0.00,,,0.00,,2013-07-05 11:48:00,
2013-07-05 07:57:00,75.0,74.0,30.19,North,0,0.0,3.0,98,0.00,,,0.00,,2013-07-05 11:57:00,
2013-07-05 08:10:00,75.0,74.0,30.19,North,0,0.0,6.0,98,0.00,,,0.00,,2013-07-05 12:10:00,
2013-07-05 08:16:00,76.0,75.0,30.19,WNW,283,1.0,5.0,98,0.00,,,0.00,,2013-07-05 12:16:00,
2013-07-05 08:25:00,76.0,75.0,30.20,North,0,0.0,7.0,98,0.00,,,0.00,,2013-07-05 12:25:00,
2013-07-05 08:37:00,76.0,75.0,30.20,West,262,1.0,6.0,97,0.00,,,0.00,,2013-07-05 12:37:00,
2013-07-05 08:49:00,77.0,76.0,30.20,North,0,0.0,2.0,96,0.00,,,0.00,,2013-07-05 12:49:00,
2013-07-05 09:07:00,78.0,76.0,30.20,North,0,0.0,2.0,94,0.00,,,0.00,,2013-07-05 13:07:00,
2013-07-05 09:13:00,79.0,76.0,30.19,North,0,0.0,3.0,92,0.00,,,0.00,,2013-07-05 13:13:00,
2013-07-05 09:25:00,79.0,75.0,30.19,North,0,0.0,5.0,89,0.00,,,0.00,,2013-07-05 13:25:00,
2013-07-05 09:39:00,80.0,76.0,30.19,North,0,0.0,3.0,88,0.00,,,0.00,,2013-07-05 13:39:00,
2013-07-05 09:48:00,80.0,76.0,30.19,North,0,0.0,5.0,87,0.00,,,0.00,,2013-07-05 13:48:00,
2013-07-05 09:55:00,81.0,76.0,30.19,North,0,0.0,5.0,85,0.00,,,0.00,,2013-07-05 13:55:00,
2013-07-05 10:28:00,82.0,77.0,30.19,North,0,0.0,5.0,84,0.00,,,0.00,,2013-07-05 14:28:00,
2013-07-05 10:38:00,83.0,77.0,30.19,North,0,0.0,2.0,82,0.00,,,0.00,,2013-07-05 14:38:00,
2013-07-05 10:46:00,83.0,77.0,30.19,North,0,0.0,5.0,82,0.00,,,0.00,,2013-07-05 14:46:00,
2013-07-05 10:55:00,83.0,78.0,30.19,North,0,0.0,5.0,84,0.00,,,0.00,,2013-07-05 14:55:00,
2013-07-05 11:07:00,84.0,77.0,30.19,North,0,0.0,3.0,80,0.00,,,0.00,,2013-07-05 15:07:00,
2013-07-05 11:34:00,85.0,77.0,30.18,North,0,0.0,4.0,77,0.00,,,0.00,,2013-07-05 15:34:00,
2013-07-05 11:43:00,85.0,77.0,30.18,North,0,0.0,5.0,77,0.00,,,0.00,,2013-07-05 15:43:00,
2013-07-05 11:53:00,85.0,77.0,30.18,North,0,0.0,4.0,77,0.00,,,0.00,,2013-07-05 15:53:00,
2013-07-05 12:44:00,86.0,79.0,30.18,North,0,0.0,6.0,79,0.00,,,0.00,,2013-07-05 16:44:00,
2013-07-05 13:12:00,85.0,77.0,30.17,North,0,0.0,7.0,77,0.00,,,0.00,,2013-07-05 17:12:00,
2013-07-05 13:53:00,87.0,78.0,30.17,North,0,0.0,7.0,74,0.00,,,0.00,,2013-07-05 17:53:00,
2013-07-05 14:02:00,87.0,78.0,30.16,North,0,0.0,8.0,75,0.00,,,0.00,,2013-07-05 18:02:00,
2013-07-05 14:22:00,87.0,78.0,30.16,North,0,0.0,11.0,76,0.00,,,0.00,,2013-07-05 18:22:00,
2013-07-05 14:53:00,86.0,79.0,30.15,North,0,0.0,8.0,79,0.00,,,0.00,,2013-07-05 18:53:00,
2013-07-05 15:43:00,87.0,79.0,30.14,North,0,0.0,7.0,78,0.00,,,0.00,,2013-07-05 19:43:00,
2013-07-05 15:53:00,86.0,78.0,30.14,North,0,0.0,7.0,76,0.00,,,0.00,,2013-07-05 19:53:00,
2013-07-05 16:02:00,87.0,78.0,30.14,North,0,0.0,7.0,76,0.00,,,0.00,,2013-07-05 20:02:00,
2013-07-05 16:11:00,87.0,79.0,30.14,North,0,0.0,6.0,77,0.00,,,0.00,,2013-07-05 20:11:00,
2013-07-05 16:53:00,86.0,78.0,30.12,North,0,0.0,7.0,77,0.00,,,0.00,,2013-07-05 20:53:00,
2013-07-05 17:01:00,86.0,78.0,30.12,North,0,0.0,6.0,77,0.00,,,0.00,,2013-07-05 21:01:00,
2013-07-05 17:12:00,86.0,78.0,30.12,North,0,0.0,7.0,76,0.00,,,0.00,,2013-07-05 21:12:00,
2013-07-05 17:53:00,87.0,79.0,30.11,North,0,0.0,3.0,78,0.00,,,0.00,,2013-07-05 21:53:00,
2013-07-05 18:02:00,86.0,78.0,30.10,North,0,0.0,7.0,77,0.00,,,0.00,,2013-07-05 22:02:00,
2013-07-05 18:11:00,86.0,78.0,30.10,North,0,0.0,7.0,78,0.00,,,0.00,,2013-07-05 22:11:00,
2013-07-05 18:34:00,85.0,77.0,30.10,NW,308,1.0,8.0,76,0.00,,,0.00,,2013-07-05 22:34:00,
2013-07-05 18:43:00,85.0,77.0,30.10,North,0,0.0,9.0,78,0.00,,,0.00,,2013-07-05 22:43:00,
2013-07-05 18:53:00,84.0,76.0,30.10,North,0,0.0,4.0,78,0.00,,,0.00,,2013-07-05 22:53:00,
2013-07-05 19:02:00,84.0,77.0,30.11,North,0,0.0,3.0,79,0.00,,,0.00,,2013-07-05 23:02:00,
2013-07-05 19:11:00,84.0,77.0,30.10,North,0,0.0,7.0,80,0.00,,,0.00,,2013-07-05 23:11:00,
2013-07-05 19:23:00,84.0,77.0,30.10,North,0,0.0,4.0,80,0.00,,,0.00,,2013-07-05 23:23:00,
2013-07-05 19:32:00,83.0,76.0,30.10,North,0,0.0,4.0,80,0.00,,,0.00,,2013-07-05 23:32:00,
2013-07-05 19:43:00,83.0,77.0,30.09,North,0,0.0,3.0,81,0.00,,,0.00,,2013-07-05 23:43:00,
2013-07-05 19:53:00,83.0,77.0,30.09,North,0,0.0,3.0,81,0.00,,,0.00,,2013-07-05 23:53:00,
2013-07-05 20:02:00,82.0,76.0,30.10,North,0,0.0,5.0,82,0.00,,,0.00,,2013-07-06 00:02:00,
2013-07-05 20:12:00,82.0,76.0,30.10,North,0,0.0,2.0,82,0.00,,,0.00,,2013-07-06 00:12:00,
2013-07-05 20:33:00,82.0,76.0,30.10,North,0,0.0,1.0,83,0.00,,,0.00,,2013-07-06 00:33:00,
2013-07-05 20:42:00,81.0,75.0,30.10,North,0,0.0,2.0,83,0.00,,,0.00,,2013-07-06 00:42:00,
2013-07-05 20:53:00,81.0,75.0,30.11,North,0,0.0,3.0,83,0.00,,,0.00,,2013-07-06 00:53:00,
2013-07-05 21:02:00,81.0,76.0,30.11,North,0,0.0,2.0,84,0.00,,,0.00,,2013-07-06 01:02:00,
2013-07-05 21:43:00,80.0,75.0,30.12,North,0,0.0,5.0,86,0.00,,,0.00,,2013-07-06 01:43:00,
2013-07-05 21:53:00,79.0,74.0,30.12,North,0,0.0,5.0,86,0.00,,,0.00,,2013-07-06 01:53:00,
2013-07-05 22:02:00,79.0,75.0,30.13,North,0,0.0,0.0,87,0.00,,,0.00,,2013-07-06 02:02:00,
2013-07-05 22:43:00,78.0,74.0,30.13,North,0,0.0,2.0,88,0.00,,,0.00,,2013-07-06 02:43:00,
2013-07-05 22:53:00,78.0,74.0,30.13,North,0,0.0,0.0,88,0.00,,,0.00,,2013-07-06 02:53:00,
2013-07-05 23:02:00,78.0,74.0,30.13,North,0,0.0,0.0,88,0.00,,,0.00,,2013-07-06 03:02:00,
2013-07-05 23:22:00,77.0,73.0,30.13,North,0,0.0,0.0,88,0.00,,,0.00,,2013-07-06 03:22:00,
2013-07-05 23:34:00,77.0,74.0,30.14,North,0,0.0,0.0,89,0.00,,,0.00,,2013-07-06 03:34:00,
2013-07-05 23:43:00,77.0,74.0,30.13,North,0,0.0,0.0,89,0.00,,,0.00,,2013-07-06 03:43:00,
2013-07-05 23:52:00,77.0,74.0,30.14,North,0,0.0,0.0,90,0.00,,,0.00,,2013-07-06 03:52:00,